Tracking 28125 objects as of 4-Oct-2023
HD Live streaming from Space Station
objects crossing your sky now

THORAD AGENA D DEB

Track THORAD AGENA D DEB now!
10-day predictions


NORAD ID: 42509
Int'l Code: 1970-025RP
Perigee: 976.1 km
Apogee: 1,164.3 km
Inclination: 100.0 °
Period: 106.5 minutes
Semi major axis: 7441 km
RCS: Unknown
Launch date: April 8, 1970
Source: United States (US)
Launch site: AIR FORCE WESTERN TEST RANGE (AFWTR)

Note: This is SATELLITE DEBRIS
Your satellite tracking list
Your tracking list is empty




NASA's NSSDC Master Catalog

Two Line Element Set (TLE):
1 42509U 70025RP  23276.02597837  .00001282  00000-0  19074-2 0  9991
2 42509 100.0224  18.6231 0126467  72.9724 288.5223 13.52500030486163
Source of the keplerian elements: AFSPC